TimePST,TemperatureF,Dew PointF,Humidity,Sea Level PressureIn,VisibilityMPH,Wind Direction,Wind SpeedMPH,Gust SpeedMPH,PrecipitationIn,Events,Conditions,WindDirDegrees,DateUTC
12:53 AM,54.0,52.0,93,30.04,4.0,Calm,Calm,-,0.06,Rain,Rain,0,2012-11-18 08:53:00
1:42 AM,53.6,51.8,94,30.04,2.5,Calm,Calm,-,0.09,Rain,Heavy Rain,0,2012-11-18 09:42:00
1:53 AM,54.0,52.0,93,30.04,3.0,Calm,Calm,-,0.11,Rain,Light Rain,0,2012-11-18 09:53:00
2:00 AM,53.6,51.8,94,30.04,2.5,Calm,Calm,-,0.05,Rain,Heavy Rain,0,2012-11-18 10:00:00
2:05 AM,53.6,51.8,94,30.04,1.5,Calm,Calm,-,0.10,Rain,Heavy Rain,0,2012-11-18 10:05:00
2:07 AM,53.6,51.8,94,30.04,1.2,Calm,Calm,-,0.12,Rain,Heavy Rain,0,2012-11-18 10:07:00
2:15 AM,53.6,51.8,94,30.04,2.0,NW,3.5,-,0.15,Rain,Rain,320,2012-11-18 10:15:00
2:31 AM,53.6,51.8,94,30.04,1.8,Calm,Calm,-,0.20,Rain,Rain,0,2012-11-18 10:31:00
2:36 AM,53.6,51.8,94,30.04,2.0,Calm,Calm,-,0.23,Rain,Heavy Rain,0,2012-11-18 10:36:00
2:48 AM,53.6,51.8,94,30.05,4.0,Calm,Calm,-,0.24,Rain,Light Rain,0,2012-11-18 10:48:00
2:53 AM,53.1,52.0,96,30.05,4.0,Calm,Calm,-,0.24,Rain,Light Rain,0,2012-11-18 10:53:00
3:53 AM,54.0,52.0,93,30.05,10.0,Calm,Calm,-,0.00,,Overcast,0,2012-11-18 11:53:00
4:08 AM,53.6,53.6,100,30.05,10.0,Calm,Calm,-,0.01,,Overcast,0,2012-11-18 12:08:00
4:53 AM,54.0,52.0,93,30.06,10.0,NE,4.6,-,0.01,,Overcast,50,2012-11-18 12:53:00
5:08 AM,53.6,53.6,100,30.07,10.0,Calm,Calm,-,N/A,,Overcast,0,2012-11-18 13:08:00
5:53 AM,54.0,53.1,97,30.07,10.0,Calm,Calm,-,N/A,,Overcast,0,2012-11-18 13:53:00
6:07 AM,53.6,53.6,100,30.08,10.0,Calm,Calm,-,N/A,,Overcast,0,2012-11-18 14:07:00
6:37 AM,53.6,53.6,100,30.10,10.0,Calm,Calm,-,N/A,,Overcast,0,2012-11-18 14:37:00
6:44 AM,53.6,53.6,100,30.10,10.0,Calm,Calm,-,N/A,,Overcast,0,2012-11-18 14:44:00
6:53 AM,54.0,53.1,97,30.10,10.0,Calm,Calm,-,N/A,,Overcast,0,2012-11-18 14:53:00
7:12 AM,53.6,51.8,94,30.11,10.0,Calm,Calm,-,N/A,,Scattered Clouds,0,2012-11-18 15:12:00
7:53 AM,55.0,53.1,93,30.12,10.0,NNE,3.5,-,N/A,,Mostly Cloudy,30,2012-11-18 15:53:00
8:53 AM,55.0,52.0,89,30.13,10.0,Calm,Calm,-,N/A,,Overcast,0,2012-11-18 16:53:00
9:25 AM,55.4,51.8,88,30.13,10.0,Calm,Calm,-,N/A,,Overcast,0,2012-11-18 17:25:00
9:53 AM,57.0,51.1,81,30.14,10.0,Calm,Calm,-,N/A,,Mostly Cloudy,0,2012-11-18 17:53:00
10:04 AM,57.2,51.8,82,30.14,10.0,Calm,Calm,-,N/A,,Scattered Clouds,0,2012-11-18 18:04:00
10:53 AM,59.0,50.0,72,30.14,10.0,South,5.8,-,N/A,,Partly Cloudy,190,2012-11-18 18:53:00
12:53 PM,61.0,43.0,52,30.13,10.0,SSW,8.1,-,N/A,,Clear,210,2012-11-18 20:53:00
1:53 PM,61.0,45.0,56,30.14,10.0,West,6.9,-,N/A,,Clear,260,2012-11-18 21:53:00
2:53 PM,60.1,46.9,62,30.14,10.0,Variable,4.6,-,N/A,,Clear,0,2012-11-18 22:53:00
3:53 PM,59.0,45.0,60,30.14,10.0,Calm,Calm,-,N/A,,Clear,0,2012-11-18 23:53:00
4:53 PM,55.0,48.0,77,30.15,10.0,WSW,3.5,-,N/A,,Clear,250,2012-11-19 00:53:00
5:53 PM,53.1,48.0,83,30.16,10.0,WNW,3.5,-,N/A,,Clear,300,2012-11-19 01:53:00
6:53 PM,52.0,48.0,86,30.17,10.0,NW,3.5,-,N/A,,Clear,310,2012-11-19 02:53:00
7:53 PM,50.0,46.9,89,30.17,10.0,NNW,3.5,-,N/A,,Clear,330,2012-11-19 03:53:00
8:53 PM,48.9,46.0,90,30.18,10.0,WNW,4.6,-,N/A,,Clear,300,2012-11-19 04:53:00
9:53 PM,48.9,45.0,86,30.19,10.0,NW,3.5,-,N/A,,Clear,320,2012-11-19 05:53:00
10:53 PM,48.0,44.1,86,30.19,10.0,Calm,Calm,-,N/A,,Clear,0,2012-11-19 06:53:00
11:53 PM,48.0,44.1,86,30.19,10.0,Calm,Calm,-,N/A,,Overcast,0,2012-11-19 07:53:00